Weather observations for the past three days for
Bogue Field Marine Corps Auxiliary Field
Imperial (Metric)
Date Time (edt) Wind (mph) Vis. (mi.) Weather Sky Cond. Temperature (ºF) Relative Humidity Wind Chill (°F) Heat Index (°F) Pressure Precipitation (in)
Air Dwpt 6 hour altimeter (in) sea level (mb) 1 hr 3 hr 6 hr
Max. Min.
05 19:51 SW 10 7.00 Fair CLR 68 59 75 68 73% 30.05 1018.0
05 18:51 SW 10 7.00 Fair CLR 71.1 57.9 63% 30.05 1018.0
05 17:51 SW 14 7.00 Fair CLR 72 57 59% 30.05 1017.9
05 16:51 S 14 7.00 Fair CLR 72 57.9 61% 30.06 1018.1
05 14:51 S 10 7.00 Partly Cloudy SCT037 75 59 58% 77 30.09 1019.2
05 13:51 S 10 7.00 Partly Cloudy SCT038 73.9 57.9 75 66 57% 30.09 1019.3
05 12:51 S 12 7.00 A Few Clouds FEW041 73.4 57.2 57% 30.1 1019.5
05 11:51 SW 10 7.00 Fair CLR 73.9 55.9 54% 30.1 1019.6
05 10:51 SW 10 7.00 Fair CLR 73 55.9 55% 30.1 1019.8
05 08:51 SW 9 7.00 Fair CLR 70 57 64% 30.1 1019.5
05 04:51 Calm 7.00 Fair CLR 61 57.9 90% 30.04 1017.7
05 02:51 SW 9 8.00 Fair CLR 64.9 57.9 78% 30.04 1017.4
05 00:51 SW 9 8.00 Fair CLR 66 55 68% 30.05 1018.0
04 22:51 SW 10 8.00 Fair CLR 66 55.9 70% 30.06 1018.2
04 20:51 SW 12 G 20 8.00 Fair CLR 66 55 68% 30.04 1017.6
04 19:51 SW 14 G 22 7.00 Fair CLR 66.9 54 72 66.9 63% 30.03 1017.3
04 18:51 SW 15 G 24 7.00 Fair CLR 69.1 52 55% 30.02 1017.0
04 17:51 SW 16 G 28 7.00 Fair CLR 70 51.1 51% 30.03 1017.2
04 15:51 S 20 G 28 7.00 Fair CLR 72 52 50% 30.05 1017.7
04 14:51 S 16 G 25 7.00 Fair CLR 71.1 51.1 49% 30.06 1018.3
04 13:51 S 16 G 24 7.00 Fair CLR 71.1 52 72 60.1 51% 30.06 1018.4
04 10:51 SW 12 7.00 Fair CLR 68 53.1 59% 30.09 1019.2
04 09:51 SW 10 7.00 Fair CLR 66.9 51.1 57% 30.09 1019.2
04 07:51 Calm 7.00 Fair CLR 60.1 51.1 60.1 46.9 72% 30.1 1019.5
04 04:51 Calm 7.00 Fair CLR 48.9 46.9 93% 30.09 1019.4
04 02:51 Calm 8.00 Fair CLR 48.9 46.9 93% 30.09 1019.1
04 01:51 Calm 8.00 Fair CLR 52 48 62.1 52 86% 30.09 1019.4
03 23:51 SW 10 8.00 Fair CLR 61 50 67% 30.1 1019.4
03 20:51 SW 9 8.00 Fair CLR 61 48 63% 30.06 1018.3
03 19:51 Vrbl 3 7.00 Fair CLR 60.8 42.8 52% 0 0.0
03 15:51 W 12 G 17 7.00 Fair CLR 66 36 33% 30.03 1017.4
03 13:51 Vrbl 6 G 18 7.00 Fair CLR 64 36 64.9 50 35% 30.07 1018.7
03 12:51 W 8 G 24 7.00 Fair CLR 62.1 35.1 37% 30.08 1019.1
03 11:51 NW 7 7.00 Fair CLR 60.1 37 42% 30.1 1019.6
03 10:51 N 7 G 24 7.00 Fair CLR 57 39.9 53% 30.09 1019.3
03 09:51 NW 13 G 18 7.00 Fair CLR 55 42.1 62% 30.09 1019.1
03 08:51 N 12 G 20 7.00 Fair CLR 52 41 66% 30.07 1018.5
03 05:51 NW 7 7.00 Fair CLR 48 46 93% 45 30 1016.4
03 04:51 W 5 5.00 Fog/Mist CLR 48 46.9 96% 47 29.99 1015.8
02 23:51 NW 5 7.00 Overcast OVC095 51.1 48.9 92% 29.91 1013.3
02 22:51 N 6 7.00 Light Rain OVC085 51.1 50 96% 29.91 1013.3
02 21:51 N 6 7.00 Overcast FEW070 OVC080 52 50 93% 29.9 1012.9
Date Time (edt) Wind (mph) Vis. (mi.) Weather Sky Cond. Air Dwpt Max. Min. Relative Humidity Wind Chill (°F) Heat Index (°F) altimeter (in) sea level (mb) 1 hr 3 hr 6 hr
6 hour
Temperature (ºF) Pressure Precipitation (in)